ANA788 RJTT-RJCC

Flight info

Callsign ANA788
Flight time 1h 19m
Altitude 37000
Route BRUCE AGRIS Y11 SAMBO Y119 OHMAR Y13 SIRAO Y139 NAVER
Aircraft B738/M-SDE2E3FGHIRWXY/LB1

Departure

Time 2026-02-17 13:55
Airport Tokyo Haneda International Airport (RJTT)

Arrival

Time 2026-02-17 15:14
Airport New Chitose Airport (RJCC)
Time Latitude Longitude Altitude Speed Heading
2026-02-17 13:23 35.55155 139.78946 27 ft 0 kts 240°
2026-02-17 13:24 35.55210 139.78908 27 ft 0 kts 240°
2026-02-17 13:43 35.55217 139.78923 26 ft 2 kts 240°
2026-02-17 13:44 35.55225 139.78940 26 ft 2 kts 240°
2026-02-17 13:44 35.55232 139.78955 26 ft 2 kts 242°
2026-02-17 13:44 35.55236 139.78970 26 ft 2 kts 265°
2026-02-17 13:44 35.55236 139.78989 26 ft 2 kts 283°
2026-02-17 13:45 35.55230 139.79007 26 ft 2 kts 304°
2026-02-17 13:45 35.55219 139.79022 26 ft 1 kts 324°
2026-02-17 13:45 35.55213 139.79027 26 ft 1 kts 332°
2026-02-17 13:45 35.55210 139.79028 26 ft 0 kts 330°
2026-02-17 13:47 35.55217 139.79024 26 ft 4 kts 332°
2026-02-17 13:48 35.55260 139.79031 26 ft 7 kts 33°
2026-02-17 13:48 35.55299 139.79083 27 ft 8 kts 60°
2026-02-17 13:48 35.55305 139.79153 27 ft 8 kts 101°
2026-02-17 13:48 35.55297 139.79225 27 ft 8 kts 87°
2026-02-17 13:49 35.55298 139.79305 27 ft 9 kts 111°
2026-02-17 13:49 35.55242 139.79356 27 ft 10 kts 152°
2026-02-17 13:49 35.55172 139.79405 27 ft 11 kts 149°
2026-02-17 13:49 35.55099 139.79457 27 ft 12 kts 150°
2026-02-17 13:50 35.55025 139.79512 27 ft 12 kts 148°
2026-02-17 13:50 35.54948 139.79565 27 ft 12 kts 151°
2026-02-17 13:50 35.54870 139.79620 28 ft 13 kts 149°
2026-02-17 13:51 35.54710 139.79735 28 ft 13 kts 150°
2026-02-17 13:51 35.54627 139.79793 28 ft 13 kts 150°
2026-02-17 13:51 35.54545 139.79852 28 ft 14 kts 150°
2026-02-17 13:51 35.54459 139.79912 28 ft 14 kts 150°
2026-02-17 13:52 35.54372 139.79974 28 ft 14 kts 150°
2026-02-17 13:52 35.54286 139.80040 28 ft 14 kts 137°
2026-02-17 13:52 35.54283 139.80145 28 ft 12 kts 64°
2026-02-17 13:52 35.54322 139.80231 28 ft 10 kts 36°
2026-02-17 13:53 35.54374 139.80226 28 ft 0 kts 330°
2026-02-17 13:54 35.54398 139.80209 28 ft 22 kts 328°
2026-02-17 13:54 35.54802 139.79925 28 ft 107 kts 330°
2026-02-17 13:54 35.55653 139.79338 28 ft 168 kts 332°
2026-02-17 13:55 35.57791 139.77774 1764 ft 165 kts 342°
2026-02-17 13:55 35.58872 139.77495 2439 ft 169 kts 359°
2026-02-17 13:55 35.60087 139.77469 3025 ft 178 kts
2026-02-17 13:55 35.61273 139.77628 3854 ft 171 kts 17°
2026-02-17 13:56 35.62338 139.78363 4330 ft 184 kts 47°
2026-02-17 13:56 35.63025 139.79718 4862 ft 193 kts 76°
2026-02-17 13:56 35.63189 139.81355 5346 ft 207 kts 101°
2026-02-17 13:56 35.62681 139.83162 5522 ft 236 kts 121°
2026-02-17 13:57 35.62018 139.84933 6688 ft 226 kts 114°
2026-02-17 13:57 35.61626 139.86728 7682 ft 223 kts 104°
2026-02-17 13:57 35.61463 139.88763 7885 ft 256 kts 94°
2026-02-17 13:57 35.61597 139.91005 8452 ft 272 kts 83°
2026-02-17 13:58 35.62039 139.93327 8977 ft 290 kts 73°
2026-02-17 13:58 35.62870 139.95650 9506 ft 306 kts 58°
2026-02-17 13:58 35.64334 139.97588 10168 ft 313 kts 32°
2026-02-17 13:59 35.68540 139.99123 11172 ft 328 kts 354°
2026-02-17 13:59 35.70875 139.98953 11693 ft 340 kts 349°
2026-02-17 13:59 35.73260 139.98659 12297 ft 349 kts 348°
2026-02-17 13:59 35.73333 139.98650 12319 ft 350 kts 348°
2026-02-17 14:00 35.75617 139.98379 13291 ft 348 kts 348°
2026-02-17 14:00 35.78031 139.98134 14222 ft 347 kts 348°
2026-02-17 14:00 35.80437 139.97922 15047 ft 349 kts 348°
2026-02-17 14:01 35.82858 139.97725 15794 ft 353 kts 348°
2026-02-17 14:01 35.85311 139.97534 16457 ft 357 kts 347°
2026-02-17 14:01 35.87815 139.97343 17179 ft 359 kts 347°
2026-02-17 14:01 35.90287 139.97157 17846 ft 362 kts 346°
2026-02-17 14:02 35.92844 139.96960 18432 ft 366 kts 345°
2026-02-17 14:02 35.95365 139.96767 19106 ft 369 kts 345°
2026-02-17 14:02 35.97939 139.96567 19775 ft 371 kts 345°
2026-02-17 14:03 36.03141 139.96161 21071 ft 377 kts 345°
2026-02-17 14:03 36.05767 139.95956 21670 ft 380 kts 345°
2026-02-17 14:03 36.08391 139.95750 22233 ft 383 kts 344°
2026-02-17 14:03 36.10999 139.95546 22844 ft 385 kts 344°
2026-02-17 14:04 36.13491 139.95354 23431 ft 386 kts 344°
2026-02-17 14:04 36.16309 139.95134 24004 ft 389 kts 344°
2026-02-17 14:04 36.19011 139.94926 24639 ft 389 kts 343°
2026-02-17 14:04 36.21722 139.94739 25145 ft 394 kts 345°
2026-02-17 14:05 36.24480 139.94615 25561 ft 401 kts 345°
2026-02-17 14:05 36.27272 139.94537 26184 ft 402 kts 345°
2026-02-17 14:05 36.30085 139.94478 26702 ft 404 kts 345°
2026-02-17 14:05 36.32927 139.94411 26915 ft 414 kts 345°
2026-02-17 14:06 36.35797 139.94341 27402 ft 416 kts 345°
2026-02-17 14:06 36.38686 139.94273 27930 ft 417 kts 345°
2026-02-17 14:06 36.41589 139.94202 28449 ft 418 kts 345°
2026-02-17 14:07 36.47499 139.94257 29358 ft 429 kts 347°
2026-02-17 14:07 36.50498 139.94395 29724 ft 434 kts 347°
2026-02-17 14:07 36.53523 139.94559 30167 ft 435 kts 347°
2026-02-17 14:07 36.56549 139.94725 30650 ft 436 kts 347°
2026-02-17 14:08 36.59584 139.94888 31021 ft 438 kts 347°
2026-02-17 14:08 36.62662 139.95039 31307 ft 443 kts 347°
2026-02-17 14:08 36.65756 139.95181 31599 ft 447 kts 347°
2026-02-17 14:08 36.68858 139.95320 31903 ft 450 kts 347°
2026-02-17 14:09 36.72028 139.95459 32225 ft 451 kts 347°
2026-02-17 14:09 36.75172 139.95605 32588 ft 453 kts 347°
2026-02-17 14:09 36.78295 139.95747 32995 ft 451 kts 347°
2026-02-17 14:09 36.81437 139.95894 33408 ft 448 kts 347°
2026-02-17 14:10 36.84527 139.96048 33849 ft 446 kts 348°
2026-02-17 14:10 36.87641 139.96362 34276 ft 449 kts 352°
2026-02-17 14:10 36.90766 139.96912 34516 ft 456 kts 355°
2026-02-17 14:11 36.97086 139.98404 34877 ft 466 kts 357°
2026-02-17 14:11 37.00291 139.99248 35147 ft 467 kts 358°
2026-02-17 14:11 37.03476 140.00107 35457 ft 466 kts 358°
2026-02-17 14:11 37.06592 140.00954 35825 ft 461 kts 358°
2026-02-17 14:12 37.09742 140.01804 36143 ft 459 kts 358°
2026-02-17 14:12 37.12894 140.02644 36376 ft 459 kts 358°
2026-02-17 14:12 37.15962 140.03447 36499 ft 462 kts 358°
2026-02-17 14:12 37.19067 140.04253 36643 ft 464 kts 358°
2026-02-17 14:13 37.22220 140.05072 36841 ft 465 kts 358°
2026-02-17 14:13 37.25394 140.05896 37016 ft 465 kts 358°
2026-02-17 14:13 37.31756 140.07553 37054 ft 464 kts 358°
2026-02-17 14:14 37.38067 140.09203 37085 ft 460 kts 358°
2026-02-17 14:15 37.47497 140.11650 37084 ft 463 kts 358°
2026-02-17 14:15 37.53825 140.13295 37098 ft 461 kts 358°
2026-02-17 14:16 37.60160 140.14952 37038 ft 462 kts 358°
2026-02-17 14:16 37.66463 140.16603 37001 ft 463 kts 359°
2026-02-17 14:17 37.72735 140.18245 36965 ft 459 kts 359°
2026-02-17 14:17 37.79055 140.19905 36963 ft 461 kts 359°
2026-02-17 14:18 37.85354 140.21559 37001 ft 462 kts 359°
2026-02-17 14:18 37.91651 140.23216 37032 ft 460 kts 359°
2026-02-17 14:19 38.01057 140.25694 37130 ft 464 kts 359°
2026-02-17 14:19 38.07396 140.27368 37144 ft 464 kts 360°
2026-02-17 14:20 38.13704 140.29044 37132 ft 462 kts 359°
2026-02-17 14:20 38.19927 140.30701 37123 ft 461 kts 359°
2026-02-17 14:21 38.26230 140.32369 37144 ft 464 kts 360°
2026-02-17 14:21 38.32578 140.34058 37096 ft 465 kts 360°
2026-02-17 14:22 38.42072 140.36650 37096 ft 465 kts
2026-02-17 14:23 38.51549 140.39690 37052 ft 468 kts
2026-02-17 14:23 38.57867 140.41779 37091 ft 467 kts
2026-02-17 14:24 38.64153 140.43842 37116 ft 467 kts
2026-02-17 14:24 38.70493 140.45898 37120 ft 468 kts
2026-02-17 14:25 38.76833 140.47952 37170 ft 469 kts
2026-02-17 14:25 38.83152 140.50003 37152 ft 468 kts
2026-02-17 14:26 38.89469 140.52057 37094 ft 466 kts
2026-02-17 14:27 38.98940 140.55136 37071 ft 465 kts
2026-02-17 14:27 39.05249 140.57190 37048 ft 467 kts
2026-02-17 14:28 39.11603 140.59265 37082 ft 471 kts
2026-02-17 14:28 39.17839 140.61317 37067 ft 466 kts
2026-02-17 14:29 39.24165 140.63400 37131 ft 466 kts
2026-02-17 14:29 39.30482 140.65482 37083 ft 466 kts
2026-02-17 14:30 39.36780 140.67554 37134 ft 470 kts
2026-02-17 14:31 39.49424 140.71739 37119 ft 469 kts
2026-02-17 14:31 39.55743 140.73834 37086 ft 469 kts
2026-02-17 14:32 39.62071 140.75944 37054 ft 465 kts
2026-02-17 14:32 39.68345 140.78030 37083 ft 470 kts
2026-02-17 14:33 39.74646 140.80136 37068 ft 464 kts
2026-02-17 14:33 39.84099 140.83296 37062 ft 467 kts
2026-02-17 14:34 39.90452 140.85425 37060 ft 468 kts
2026-02-17 14:35 39.99933 140.88617 37020 ft 466 kts
2026-02-17 14:35 40.06202 140.90730 37065 ft 466 kts
2026-02-17 14:36 40.12513 140.92859 37073 ft 467 kts
2026-02-17 14:36 40.18847 140.94785 37089 ft 461 kts 360°
2026-02-17 14:37 40.25119 140.95529 37101 ft 450 kts 352°
2026-02-17 14:37 40.31385 140.95685 37116 ft 450 kts 351°
2026-02-17 14:38 40.37634 140.95761 37087 ft 446 kts 351°
2026-02-17 14:38 40.43874 140.95880 37063 ft 450 kts 351°
2026-02-17 14:39 40.53322 140.96141 37116 ft 450 kts 352°
2026-02-17 14:39 40.59575 140.96336 37071 ft 452 kts 353°
2026-02-17 14:40 40.65889 140.96547 37074 ft 448 kts 352°
2026-02-17 14:41 40.75279 140.96857 37099 ft 454 kts 352°
2026-02-17 14:41 40.81609 140.97067 37118 ft 449 kts 352°
2026-02-17 14:42 40.87905 140.97279 37109 ft 450 kts 352°
2026-02-17 14:42 40.94186 140.97487 37137 ft 451 kts 353°
2026-02-17 14:43 41.03622 140.97797 37155 ft 454 kts 352°
2026-02-17 14:43 41.09904 140.98010 37170 ft 452 kts 353°
2026-02-17 14:44 41.16152 140.98225 37142 ft 449 kts 353°
2026-02-17 14:44 41.22427 140.98438 37158 ft 450 kts 353°
2026-02-17 14:45 41.28707 140.98863 37121 ft 456 kts 359°
2026-02-17 14:45 41.35021 141.00644 37157 ft 469 kts
2026-02-17 14:46 41.41215 141.03455 37139 ft 470 kts 12°
2026-02-17 14:47 41.50368 141.08104 37124 ft 470 kts 13°
2026-02-17 14:47 41.56506 141.11224 37181 ft 472 kts 13°
2026-02-17 14:48 41.62651 141.14317 37136 ft 469 kts 13°
2026-02-17 14:48 41.68755 141.17368 37125 ft 470 kts 13°
2026-02-17 14:49 41.74887 141.20451 37204 ft 471 kts 13°
2026-02-17 14:49 41.77934 141.21994 37094 ft 469 kts 13°
2026-02-17 14:49 41.80969 141.23538 36863 ft 462 kts 13°
2026-02-17 14:49 41.83963 141.25066 36527 ft 460 kts 13°
2026-02-17 14:50 41.86939 141.26579 35975 ft 462 kts 13°
2026-02-17 14:50 41.89938 141.28101 35386 ft 465 kts 14°
2026-02-17 14:50 41.92923 141.29732 35058 ft 464 kts 19°
2026-02-17 14:51 41.98460 141.34164 34110 ft 466 kts 31°
2026-02-17 14:51 42.00987 141.36902 33595 ft 466 kts 35°
2026-02-17 14:51 42.03409 141.39818 33081 ft 467 kts 38°
2026-02-17 14:51 42.05736 141.42783 32520 ft 465 kts 39°
2026-02-17 14:52 42.08067 141.45828 31787 ft 464 kts 39°
2026-02-17 14:52 42.10360 141.48875 30858 ft 468 kts 40°
2026-02-17 14:52 42.12642 141.51897 29945 ft 468 kts 38°
2026-02-17 14:52 42.15065 141.54758 29016 ft 467 kts 35°
2026-02-17 14:53 42.17513 141.57628 28048 ft 470 kts 41°
2026-02-17 14:53 42.19535 141.61085 27109 ft 474 kts 52°
2026-02-17 14:53 42.21219 141.64845 26117 ft 465 kts 57°
2026-02-17 14:53 42.22698 141.68545 25223 ft 458 kts 59°
2026-02-17 14:54 42.24163 141.72360 24266 ft 455 kts 60°
2026-02-17 14:54 42.25575 141.76099 23298 ft 449 kts 60°
2026-02-17 14:54 42.26966 141.79808 22343 ft 443 kts 60°
2026-02-17 14:55 42.29220 141.87354 20388 ft 432 kts 69°
2026-02-17 14:55 42.30134 141.91164 19429 ft 425 kts 70°
2026-02-17 14:55 42.31004 141.94943 18477 ft 422 kts 70°
2026-02-17 14:55 42.31853 141.98689 17534 ft 417 kts 70°
2026-02-17 14:56 42.32689 142.02408 16462 ft 411 kts 70°
2026-02-17 14:56 42.33499 142.06020 15402 ft 405 kts 70°
2026-02-17 14:56 42.34417 142.09584 14332 ft 397 kts 62°
2026-02-17 14:56 42.35890 142.12614 13271 ft 388 kts 47°
2026-02-17 14:57 42.37785 142.15141 12216 ft 379 kts 34°
2026-02-17 14:57 42.40089 142.16746 11486 ft 368 kts 14°
2026-02-17 14:57 42.42595 142.17145 11106 ft 363 kts 354°
2026-02-17 14:57 42.45030 142.16446 10750 ft 360 kts 339°
2026-02-17 14:58 42.47351 142.15179 10421 ft 360 kts 334°
2026-02-17 14:58 42.49618 142.13750 10215 ft 355 kts 333°
2026-02-17 14:58 42.51772 142.12184 10250 ft 354 kts 328°
2026-02-17 14:59 42.55968 142.08632 10116 ft 354 kts 326°
2026-02-17 14:59 42.58035 142.06827 10035 ft 353 kts 326°
2026-02-17 14:59 42.60118 142.05031 10012 ft 352 kts 327°
2026-02-17 14:59 42.62212 142.03247 10008 ft 354 kts 327°
2026-02-17 15:00 42.64274 142.01506 10032 ft 353 kts 327°
2026-02-17 15:00 42.66380 141.99738 10047 ft 355 kts 327°
2026-02-17 15:00 42.68492 141.97960 10020 ft 354 kts 327°
2026-02-17 15:00 42.70555 141.96219 10015 ft 354 kts 327°
2026-02-17 15:01 42.72636 141.94470 10036 ft 339 kts 327°
2026-02-17 15:01 42.74574 141.92839 10018 ft 318 kts 327°
2026-02-17 15:01 42.76443 141.91339 9858 ft 304 kts 331°
2026-02-17 15:01 42.78366 141.90335 9546 ft 298 kts 343°
2026-02-17 15:02 42.80397 141.89825 9217 ft 291 kts 349°
2026-02-17 15:02 42.82377 141.89497 8910 ft 285 kts 351°
2026-02-17 15:02 42.84329 141.89171 8589 ft 278 kts 349°
2026-02-17 15:03 42.88088 141.88420 7946 ft 267 kts 348°
2026-02-17 15:03 42.89888 141.88026 7706 ft 260 kts 348°
2026-02-17 15:03 42.91676 141.87630 7494 ft 259 kts 348°
2026-02-17 15:03 42.93454 141.87234 7280 ft 259 kts 348°
2026-02-17 15:04 42.95210 141.86848 7061 ft 251 kts 348°
2026-02-17 15:04 42.96910 141.86476 6842 ft 244 kts 347°
2026-02-17 15:04 42.98576 141.86113 6574 ft 238 kts 348°
2026-02-17 15:04 43.00183 141.85773 6357 ft 229 kts 348°
2026-02-17 15:05 43.01736 141.85445 6155 ft 222 kts 348°
2026-02-17 15:05 43.03231 141.85123 5974 ft 216 kts 348°
2026-02-17 15:05 43.04705 141.84784 5624 ft 216 kts 346°
2026-02-17 15:05 43.06133 141.84109 5086 ft 220 kts 327°
2026-02-17 15:06 43.07191 141.82588 4530 ft 225 kts 299°
2026-02-17 15:06 43.07704 141.80580 4140 ft 225 kts 281°
2026-02-17 15:06 43.07687 141.78484 3820 ft 224 kts 257°
2026-02-17 15:07 43.05964 141.75003 3195 ft 218 kts 231°
2026-02-17 15:07 43.05004 141.73451 2988 ft 208 kts 232°
2026-02-17 15:07 43.04127 141.71986 3002 ft 193 kts 232°
2026-02-17 15:07 43.03292 141.70579 3008 ft 191 kts 233°
2026-02-17 15:08 43.02450 141.69162 3003 ft 190 kts 232°
2026-02-17 15:08 43.01618 141.67767 3006 ft 190 kts 232°
2026-02-17 15:08 43.00764 141.66391 3004 ft 190 kts 227°
2026-02-17 15:08 42.99624 141.65500 2930 ft 194 kts 193°
2026-02-17 15:09 42.98276 141.65591 2787 ft 195 kts 167°
2026-02-17 15:09 42.96954 141.65997 2653 ft 195 kts 171°
2026-02-17 15:09 42.95605 141.66261 2509 ft 195 kts 173°
2026-02-17 15:09 42.94257 141.66475 2371 ft 194 kts 173°
2026-02-17 15:10 42.92923 141.66704 2226 ft 195 kts 172°
2026-02-17 15:10 42.91596 141.66942 2071 ft 187 kts 172°
2026-02-17 15:10 42.90358 141.67160 2014 ft 172 kts 172°
2026-02-17 15:11 42.87976 141.67578 2048 ft 171 kts 172°
2026-02-17 15:11 42.86764 141.67795 1862 ft 171 kts 171°
2026-02-17 15:11 42.85637 141.67981 1553 ft 156 kts 172°
2026-02-17 15:11 42.84576 141.68158 1214 ft 153 kts 171°
2026-02-17 15:12 42.83544 141.68332 1016 ft 145 kts 171°
2026-02-17 15:12 42.82554 141.68533 857 ft 143 kts 169°
2026-02-17 15:12 42.81559 141.68712 701 ft 145 kts 171°
2026-02-17 15:12 42.80555 141.68880 480 ft 145 kts 170°
2026-02-17 15:13 42.79577 141.69060 285 ft 137 kts 169°
2026-02-17 15:13 42.78646 141.69214 131 ft 134 kts 169°
2026-02-17 15:13 42.77780 141.69382 91 ft 98 kts 172°
2026-02-17 15:13 42.77315 141.69455 91 ft 55 kts 172°
2026-02-17 15:14 42.76963 141.69513 91 ft 40 kts 177°
2026-02-17 15:14 42.76699 141.69440 91 ft 36 kts 200°
2026-02-17 15:14 42.76599 141.69226 91 ft 26 kts 263°
2026-02-17 15:15 42.76773 141.68948 91 ft 22 kts 355°
2026-02-17 15:15 42.76928 141.68921 91 ft 22 kts 352°
2026-02-17 15:15 42.77084 141.68893 91 ft 22 kts 353°
2026-02-17 15:15 42.77235 141.68867 91 ft 22 kts 353°
2026-02-17 15:16 42.77387 141.68840 91 ft 21 kts 353°
2026-02-17 15:16 42.77539 141.68813 91 ft 21 kts 353°
2026-02-17 15:16 42.77689 141.68787 91 ft 21 kts 353°
2026-02-17 15:16 42.77839 141.68761 91 ft 21 kts 353°
2026-02-17 15:17 42.77985 141.68735 91 ft 21 kts 351°
2026-02-17 15:17 42.78129 141.68709 91 ft 20 kts 353°
2026-02-17 15:17 42.78274 141.68683 91 ft 20 kts 353°
2026-02-17 15:17 42.78417 141.68658 91 ft 20 kts 353°
2026-02-17 15:18 42.78559 141.68634 91 ft 20 kts 352°
2026-02-17 15:18 42.78699 141.68608 91 ft 20 kts 353°
2026-02-17 15:18 42.78840 141.68579 91 ft 20 kts 349°
2026-02-17 15:19 42.79083 141.68422 91 ft 17 kts 320°
2026-02-17 15:19 42.79126 141.68291 91 ft 15 kts 242°
2026-02-17 15:19 42.79075 141.68188 91 ft 11 kts 264°
2026-02-17 15:19 42.79064 141.68095 91 ft 8 kts 235°
2026-02-17 15:20 42.79031 141.68066 91 ft 3 kts 207°
2026-02-17 15:20 42.79017 141.68056 91 ft 2 kts 208°
2026-02-17 15:20 42.79006 141.68048 91 ft 0 kts 207°